Date,TemperatureHighF,TemperatureAvgF,TemperatureLowF,DewpointHighF,DewpointAvgF,DewpointLowF,HumidityHigh,HumidityAvg,HumidityLow,PressureMaxIn,PressureMinIn,WindSpeedMaxMPH,WindSpeedAvgMPH,GustSpeedMaxMPH,PrecipitationSumIn
2013-1-1,88,78,67,71,64,58,84,64,39,30.06,29.88,22,6,28,0.00
2013-1-2,85,77,72,69,64,55,78,64,43,29.98,29.90,22,5,28,0.00
2013-1-3,83,76,70,70,62,54,76,63,51,29.99,29.90,27,6,32,0.00
2013-1-4,85,77,75,63,61,59,64,58,46,30.02,29.91,35,12,39,0.00
2013-1-5,80,78,71,70,61,49,76,57,39,30.06,29.95,28,6,36,0.00
2013-1-6,78,72,67,66,56,52,68,58,44,30.08,30.01,12,3,17,0.00
2013-1-7,86,74,67,68,60,53,75,62,42,30.02,29.88,12,4,30,0.00
2013-1-8,86,76,69,67,64,50,73,67,46,29.93,29.83,12,3,25,0.00
2013-1-9,79,76,67,68,64,57,72,66,51,29.95,29.84,21,4,25,0.00
2013-1-10,81,74,69,69,62,58,76,66,53,29.95,29.85,17,4,23,0.00
2013-1-11,82,76,71,67,63,59,73,65,52,29.91,29.81,19,5,23,0.00
2013-1-19,81,73,66,62,56,48,71,55,31,29.97,29.83,11,5,22,0.00
2013-1-20,80,73,68,62,56,51,66,56,47,30.00,29.89,7,3,22,0.00
2013-1-21,78,73,65,68,62,56,76,70,60,30.05,29.96,7,3,13,0.00
2013-1-22,82,75,71,66,61,57,71,63,51,30.07,29.97,12,6,28,0.00
2013-1-23,83,74,70,67,62,58,76,67,49,30.02,29.95,13,4,30,0.00
2013-1-24,77,72,66,69,62,55,81,71,57,30.04,29.97,6,3,10,0.00
2013-1-25,78,74,66,68,65,57,83,74,65,30.03,29.95,6,2,10,0.00
2013-1-26,78,72,66,69,62,55,78,72,54,30.02,29.91,10,3,10,0.00
2013-1-27,80,73,65,68,62,55,78,69,48,29.98,29.87,9,3,11,0.00
2013-1-28,78,74,68,68,63,53,82,69,54,29.97,29.86,10,2,10,0.00
2013-1-29,77,73,68,69,65,58,90,78,68,30.01,29.90,10,2,13,0.10
2013-1-30,77,71,68,70,67,66,93,88,74,30.04,29.98,9,2,11,0.17
2013-1-31,79,76,66,71,67,61,85,74,63,30.05,29.95,17,3,17,0.00